owner,sensor,date,latitude,longitude,vertical_datum,sea_water_practical_salinity,qcFlag 
DISL,ioos:station:DISL:BSCA:1,2019-09-01T00:30:00Z,30.3288,-87.8293,1.959,17.82,11111222 
DISL,ioos:station:DISL:BSCA:1,2019-09-01T01:30:00Z,30.3288,-87.8293,1.905,17.89,11111222 
DISL,ioos:station:DISL:BSCA:1,2019-09-01T02:30:00Z,30.3288,-87.8293,1.878,17.98,11111222 
DISL,ioos:station:DISL:BSCA:1,2019-09-01T03:30:00Z,30.3288,-87.8293,1.882,18.09,11111222 
DISL,ioos:station:DISL:BSCA:1,2019-09-01T04:30:00Z,30.3288,-87.8293,1.882,18.18,11111222 
DISL,ioos:station:DISL:BSCA:1,2019-09-01T05:30:00Z,30.3288,-87.8293,1.882,18.18,11111222 
DISL,ioos:station:DISL:BSCA:1,2019-09-01T06:30:00Z,30.3288,-87.8293,1.911,18.22,11111222 
DISL,ioos:station:DISL:BSCA:1,2019-09-01T07:30:00Z,30.3288,-87.8293,1.937,18.02,11111222 
DISL,ioos:station:DISL:BSCA:1,2019-09-01T08:30:00Z,30.3288,-87.8293,1.925,17.95,11111222 
DISL,ioos:station:DISL:BSCA:1,2019-09-01T09:30:00Z,30.3288,-87.8293,1.947,18.2,11111222 
DISL,ioos:station:DISL:BSCA:1,2019-09-01T10:30:00Z,30.3288,-87.8293,1.982,18.08,11111222 
DISL,ioos:station:DISL:BSCA:1,2019-09-01T11:30:00Z,30.3288,-87.8293,1.972,18.12,11111222 
DISL,ioos:station:DISL:BSCA:1,2019-09-01T12:30:00Z,30.3288,-87.8293,1.971,18.02,11111222 
DISL,ioos:station:DISL:BSCA:1,2019-09-01T13:30:00Z,30.3288,-87.8293,2.005,17.92,11111222 
DISL,ioos:station:DISL:BSCA:1,2019-09-01T14:30:00Z,30.3288,-87.8293,2.053,18.04,11111222 
DISL,ioos:station:DISL:BSCA:1,2019-09-01T15:30:00Z,30.3288,-87.8293,2.089,18.45,11111222 
DISL,ioos:station:DISL:BSCA:1,2019-09-01T16:30:00Z,30.3288,-87.8293,2.125,18.14,11111222 
DISL,ioos:station:DISL:BSCA:1,2019-09-01T17:30:00Z,30.3288,-87.8293,2.162,18.31,11111222 
DISL,ioos:station:DISL:BSCA:1,2019-09-01T18:30:00Z,30.3288,-87.8293,2.204,18.97,11111222 
DISL,ioos:station:DISL:BSCA:1,2019-09-01T19:30:00Z,30.3288,-87.8293,2.225,18.96,11111222 
DISL,ioos:station:DISL:BSCA:1,2019-09-01T20:30:00Z,30.3288,-87.8293,2.222,19.77,11111222 
DISL,ioos:station:DISL:BSCA:1,2019-09-01T21:30:00Z,30.3288,-87.8293,2.196,18.95,11111222 
DISL,ioos:station:DISL:BSCA:1,2019-09-01T22:30:00Z,30.3288,-87.8293,2.14,18.82,11111222 
DISL,ioos:station:DISL:BSCA:1,2019-09-01T23:30:00Z,30.3288,-87.8293,2.084,18.56,11111222 
DISL,ioos:station:DISL:BSCA:1,2019-09-02T00:30:00Z,30.3288,-87.8293,2.026,18.47,11111222 
DISL,ioos:station:DISL:BSCA:1,2019-09-02T01:30:00Z,30.3288,-87.8293,1.985,18.96,11111222 
DISL,ioos:station:DISL:BSCA:1,2019-09-02T02:30:00Z,30.3288,-87.8293,1.965,18.83,11111222 
DISL,ioos:station:DISL:BSCA:1,2019-09-02T03:30:00Z,30.3288,-87.8293,1.95,18.74,11111222 
DISL,ioos:station:DISL:BSCA:1,2019-09-02T04:30:00Z,30.3288,-87.8293,1.938,18.66,11111222 
DISL,ioos:station:DISL:BSCA:1,2019-09-02T05:30:00Z,30.3288,-87.8293,1.932,18.44,11111222 
DISL,ioos:station:DISL:BSCA:1,2019-09-02T06:30:00Z,30.3288,-87.8293,1.956,18.55,11111222 
DISL,ioos:station:DISL:BSCA:1,2019-09-02T07:30:00Z,30.3288,-87.8293,1.964,18.4,11111222 
DISL,ioos:station:DISL:BSCA:1,2019-09-02T08:30:00Z,30.3288,-87.8293,1.989,18.56,11111222 
DISL,ioos:station:DISL:BSCA:1,2019-09-02T09:30:00Z,30.3288,-87.8293,1.983,18.39,11111222 
DISL,ioos:station:DISL:BSCA:1,2019-09-02T11:30:00Z,30.3288,-87.8293,1.958,18.48,11111222 
DISL,ioos:station:DISL:BSCA:1,2019-09-02T12:30:00Z,30.3288,-87.8293,1.943,18.5,11111222 
DISL,ioos:station:DISL:BSCA:1,2019-09-02T15:30:00Z,30.3288,-87.8293,1.943,18.7,11111222 
DISL,ioos:station:DISL:BSCA:1,2019-09-02T16:30:00Z,30.3288,-87.8293,1.975,18.98,11111222 
DISL,ioos:station:DISL:BSCA:1,2019-09-02T17:30:00Z,30.3288,-87.8293,2.01,18.99,11111222 
DISL,ioos:station:DISL:BSCA:1,2019-09-02T18:30:00Z,30.3288,-87.8293,2.049,20.18,11111222 
DISL,ioos:station:DISL:BSCA:1,2019-09-02T19:30:00Z,30.3288,-87.8293,2.076,19.78,11111222 
DISL,ioos:station:DISL:BSCA:1,2019-09-02T20:30:00Z,30.3288,-87.8293,2.088,19.98,11111222 
DISL,ioos:station:DISL:BSCA:1,2019-09-02T21:30:00Z,30.3288,-87.8293,2.091,19.31,11111222 
DISL,ioos:station:DISL:BSCA:1,2019-09-02T22:30:00Z,30.3288,-87.8293,2.088,20.07,11111222 
DISL,ioos:station:DISL:BSCA:1,2019-09-02T23:30:00Z,30.3288,-87.8293,2.057,20.03,11111222 
DISL,ioos:station:DISL:BSCA:1,2019-09-03T00:30:00Z,30.3288,-87.8293,2.055,19.75,11111222 
DISL,ioos:station:DISL:BSCA:1,2019-09-03T01:30:00Z,30.3288,-87.8293,1.984,19.96,11111222 
DISL,ioos:station:DISL:BSCA:1,2019-09-03T02:30:00Z,30.3288,-87.8293,1.954,18.99,11111222 
DISL,ioos:station:DISL:BSCA:1,2019-09-03T03:30:00Z,30.3288,-87.8293,1.972,18.91,11111222 
DISL,ioos:station:DISL:BSCA:1,2019-09-03T04:30:00Z,30.3288,-87.8293,2.002,19.1,11111222 
DISL,ioos:station:DISL:BSCA:1,2019-09-03T05:30:00Z,30.3288,-87.8293,2.026,19.15,11111222 
DISL,ioos:station:DISL:BSCA:1,2019-09-03T06:30:00Z,30.3288,-87.8293,2.021,19.12,11111222 
DISL,ioos:station:DISL:BSCA:1,2019-09-03T07:30:00Z,30.3288,-87.8293,2.031,20.1,11111222 
DISL,ioos:station:DISL:BSCA:1,2019-09-03T08:30:00Z,30.3288,-87.8293,2.052,20.24,11111222 
DISL,ioos:station:DISL:BSCA:1,2019-09-03T09:30:00Z,30.3288,-87.8293,2.035,20.49,11111222 
DISL,ioos:station:DISL:BSCA:1,2019-09-03T10:30:00Z,30.3288,-87.8293,1.999,20.66,11111222 
DISL,ioos:station:DISL:BSCA:1,2019-09-03T11:30:00Z,30.3288,-87.8293,1.955,20.67,11111222 
DISL,ioos:station:DISL:BSCA:1,2019-09-03T12:30:00Z,30.3288,-87.8293,1.906,20.83,11111222 
DISL,ioos:station:DISL:BSCA:1,2019-09-03T13:30:00Z,30.3288,-87.8293,1.884,20.81,11111222 
DISL,ioos:station:DISL:BSCA:1,2019-09-03T14:30:00Z,30.3288,-87.8293,1.855,20.95,11111222 
DISL,ioos:station:DISL:BSCA:1,2019-09-03T15:30:00Z,30.3288,-87.8293,1.834,21.02,11111222 
DISL,ioos:station:DISL:BSCA:1,2019-09-03T16:30:00Z,30.3288,-87.8293,1.832,20.52,11111222 
DISL,ioos:station:DISL:BSCA:1,2019-09-03T17:30:00Z,30.3288,-87.8293,1.857,21.32,11111222 
DISL,ioos:station:DISL:BSCA:1,2019-09-03T18:30:00Z,30.3288,-87.8293,1.897,21.47,11111222 
DISL,ioos:station:DISL:BSCA:1,2019-09-03T19:30:00Z,30.3288,-87.8293,1.93,21.63,11111222 
DISL,ioos:station:DISL:BSCA:1,2019-09-03T20:30:00Z,30.3288,-87.8293,1.946,21.77,11111222 
DISL,ioos:station:DISL:BSCA:1,2019-09-03T21:30:00Z,30.3288,-87.8293,1.972,21.79,11111222 
DISL,ioos:station:DISL:BSCA:1,2019-09-03T22:30:00Z,30.3288,-87.8293,1.993,21.63,11111222 
DISL,ioos:station:DISL:BSCA:1,2019-09-03T23:30:00Z,30.3288,-87.8293,2.005,21.38,11111222 
DISL,ioos:station:DISL:BSCA:1,2019-09-04T00:30:00Z,30.3288,-87.8293,2.014,20.77,11111222 
DISL,ioos:station:DISL:BSCA:1,2019-09-04T01:30:00Z,30.3288,-87.8293,2.019,20.3,11111222 
DISL,ioos:station:DISL:BSCA:1,2019-09-04T02:30:00Z,30.3288,-87.8293,2.035,19.7,11111222 
DISL,ioos:station:DISL:BSCA:1,2019-09-04T03:30:00Z,30.3288,-87.8293,2.063,19.43,11111222 
DISL,ioos:station:DISL:BSCA:1,2019-09-04T04:30:00Z,30.3288,-87.8293,2.078,19.78,11111222 
DISL,ioos:station:DISL:BSCA:1,2019-09-04T05:30:00Z,30.3288,-87.8293,2.101,19.25,11111222 
DISL,ioos:station:DISL:BSCA:1,2019-09-04T06:30:00Z,30.3288,-87.8293,2.105,19.98,11111222 
DISL,ioos:station:DISL:BSCA:1,2019-09-04T07:30:00Z,30.3288,-87.8293,2.108,20.41,11111222 
DISL,ioos:station:DISL:BSCA:1,2019-09-04T08:30:00Z,30.3288,-87.8293,2.096,20.05,11111222 
DISL,ioos:station:DISL:BSCA:1,2019-09-04T09:30:00Z,30.3288,-87.8293,2.059,19.34,11111222 
DISL,ioos:station:DISL:BSCA:1,2019-09-04T10:30:00Z,30.3288,-87.8293,2.006,20.8,11111222 
DISL,ioos:station:DISL:BSCA:1,2019-09-04T11:30:00Z,30.3288,-87.8293,1.963,22.09,11111222 
DISL,ioos:station:DISL:BSCA:1,2019-09-04T12:30:00Z,30.3288,-87.8293,1.909,22.71,11111222 
DISL,ioos:station:DISL:BSCA:1,2019-09-04T13:30:00Z,30.3288,-87.8293,1.857,23.27,11111222 
DISL,ioos:station:DISL:BSCA:1,2019-09-04T14:30:00Z,30.3288,-87.8293,1.807,23.57,11111222 
DISL,ioos:station:DISL:BSCA:1,2019-09-04T15:30:00Z,30.3288,-87.8293,1.767,23.68,11111222 
DISL,ioos:station:DISL:BSCA:1,2019-09-04T16:30:00Z,30.3288,-87.8293,1.73,23.8,11111222 
DISL,ioos:station:DISL:BSCA:1,2019-09-04T17:30:00Z,30.3288,-87.8293,1.726,24.1,11111222 
DISL,ioos:station:DISL:BSCA:1,2019-09-04T18:30:00Z,30.3288,-87.8293,1.74,24.27,11111222 
DISL,ioos:station:DISL:BSCA:1,2019-09-04T19:30:00Z,30.3288,-87.8293,1.746,23.8,11111222 
DISL,ioos:station:DISL:BSCA:1,2019-09-04T20:30:00Z,30.3288,-87.8293,1.77,22.16,11111222 
DISL,ioos:station:DISL:BSCA:1,2019-09-04T21:30:00Z,30.3288,-87.8293,1.782,21.73,11111222 
DISL,ioos:station:DISL:BSCA:1,2019-09-04T22:30:00Z,30.3288,-87.8293,1.793,22.04,11111222 
DISL,ioos:station:DISL:BSCA:1,2019-09-04T23:30:00Z,30.3288,-87.8293,1.832,22.77,11111222 
DISL,ioos:station:DISL:BSCA:1,2019-09-05T00:30:00Z,30.3288,-87.8293,1.875,23.9,11111222 
DISL,ioos:station:DISL:BSCA:1,2019-09-05T01:30:00Z,30.3288,-87.8293,1.891,24.14,11111222 
DISL,ioos:station:DISL:BSCA:1,2019-09-05T02:30:00Z,30.3288,-87.8293,1.921,24.21,11111222 
DISL,ioos:station:DISL:BSCA:1,2019-09-05T03:30:00Z,30.3288,-87.8293,1.945,23.92,11111222 
DISL,ioos:station:DISL:BSCA:1,2019-09-05T04:30:00Z,30.3288,-87.8293,2.016,24.1,11111222 
DISL,ioos:station:DISL:BSCA:1,2019-09-05T05:30:00Z,30.3288,-87.8293,2.063,24.16,11111222 
DISL,ioos:station:DISL:BSCA:1,2019-09-05T06:30:00Z,30.3288,-87.8293,2.089,24.06,11111222 
DISL,ioos:station:DISL:BSCA:1,2019-09-05T07:30:00Z,30.3288,-87.8293,2.102,23.68,11111222 
DISL,ioos:station:DISL:BSCA:1,2019-09-05T08:30:00Z,30.3288,-87.8293,2.08,23.53,11111222 
DISL,ioos:station:DISL:BSCA:1,2019-09-05T09:30:00Z,30.3288,-87.8293,2.038,23.52,11111222 
DISL,ioos:station:DISL:BSCA:1,2019-09-05T10:30:00Z,30.3288,-87.8293,1.992,23.6,11111222 
DISL,ioos:station:DISL:BSCA:1,2019-09-05T11:30:00Z,30.3288,-87.8293,1.952,23.43,11111222 
DISL,ioos:station:DISL:BSCA:1,2019-09-05T12:30:00Z,30.3288,-87.8293,1.91,22.1,11111222 
DISL,ioos:station:DISL:BSCA:1,2019-09-05T13:30:00Z,30.3288,-87.8293,1.869,22.87,11111222 
DISL,ioos:station:DISL:BSCA:1,2019-09-05T14:30:00Z,30.3288,-87.8293,1.82,22.48,11111222 
DISL,ioos:station:DISL:BSCA:1,2019-09-05T15:30:00Z,30.3288,-87.8293,1.76,23.22,11111222 
DISL,ioos:station:DISL:BSCA:1,2019-09-05T16:30:00Z,30.3288,-87.8293,1.719,22.69,11111222 
DISL,ioos:station:DISL:BSCA:1,2019-09-05T17:30:00Z,30.3288,-87.8293,1.69,22.32,11111222 
DISL,ioos:station:DISL:BSCA:1,2019-09-05T18:30:00Z,30.3288,-87.8293,1.676,22.13,11111222 
DISL,ioos:station:DISL:BSCA:1,2019-09-05T19:30:00Z,30.3288,-87.8293,1.659,21.76,11111222 
DISL,ioos:station:DISL:BSCA:1,2019-09-05T20:30:00Z,30.3288,-87.8293,1.676,19.69,11111222 
DISL,ioos:station:DISL:BSCA:1,2019-09-05T21:30:00Z,30.3288,-87.8293,1.711,19.14,11111222 
DISL,ioos:station:DISL:BSCA:1,2019-09-05T22:30:00Z,30.3288,-87.8293,1.742,19.1,11111222 
DISL,ioos:station:DISL:BSCA:1,2019-09-05T23:30:00Z,30.3288,-87.8293,1.792,18.9,11111222 
DISL,ioos:station:DISL:BSCA:1,2019-09-06T00:30:00Z,30.3288,-87.8293,1.821,18.79,11111222 
DISL,ioos:station:DISL:BSCA:1,2019-09-06T01:30:00Z,30.3288,-87.8293,1.818,18.79,11111222 
DISL,ioos:station:DISL:BSCA:1,2019-09-06T02:30:00Z,30.3288,-87.8293,1.813,18.86,11111222 
DISL,ioos:station:DISL:BSCA:1,2019-09-06T03:30:00Z,30.3288,-87.8293,1.858,19.15,11111222 
DISL,ioos:station:DISL:BSCA:1,2019-09-06T04:30:00Z,30.3288,-87.8293,1.911,19.33,11111222 
DISL,ioos:station:DISL:BSCA:1,2019-09-06T05:30:00Z,30.3288,-87.8293,1.957,19.47,11111222 
DISL,ioos:station:DISL:BSCA:1,2019-09-06T08:30:00Z,30.3288,-87.8293,2.015,19.61,11111222 
DISL,ioos:station:DISL:BSCA:1,2019-09-06T09:30:00Z,30.3288,-87.8293,1.997,19.39,11111222 
DISL,ioos:station:DISL:BSCA:1,2019-09-06T10:30:00Z,30.3288,-87.8293,1.954,19.26,11111222 
DISL,ioos:station:DISL:BSCA:1,2019-09-06T11:30:00Z,30.3288,-87.8293,1.9,19.98,11111222 
DISL,ioos:station:DISL:BSCA:1,2019-09-06T12:30:00Z,30.3288,-87.8293,1.867,19.83,11111222 
DISL,ioos:station:DISL:BSCA:1,2019-09-06T13:30:00Z,30.3288,-87.8293,1.838,20.02,11111222 
DISL,ioos:station:DISL:BSCA:1,2019-09-06T14:30:00Z,30.3288,-87.8293,1.807,20.06,11111222 
DISL,ioos:station:DISL:BSCA:1,2019-09-06T15:30:00Z,30.3288,-87.8293,1.763,19.24,11111222 
DISL,ioos:station:DISL:BSCA:1,2019-09-06T16:30:00Z,30.3288,-87.8293,1.724,19.35,11111222 
DISL,ioos:station:DISL:BSCA:1,2019-09-06T17:30:00Z,30.3288,-87.8293,1.684,20.01,11111222 
DISL,ioos:station:DISL:BSCA:1,2019-09-06T18:30:00Z,30.3288,-87.8293,1.657,19.94,11111222 
DISL,ioos:station:DISL:BSCA:1,2019-09-06T19:30:00Z,30.3288,-87.8293,1.639,19.98,11111222 
DISL,ioos:station:DISL:BSCA:1,2019-09-06T20:30:00Z,30.3288,-87.8293,1.619,19.95,11111222 
DISL,ioos:station:DISL:BSCA:1,2019-09-06T21:30:00Z,30.3288,-87.8293,1.605,19.64,11111222 
DISL,ioos:station:DISL:BSCA:1,2019-09-06T22:30:00Z,30.3288,-87.8293,1.604,19.48,11111222 
DISL,ioos:station:DISL:BSCA:1,2019-09-06T23:30:00Z,30.3288,-87.8293,1.616,19.45,11111222 
DISL,ioos:station:DISL:BSCA:1,2019-09-07T00:30:00Z,30.3288,-87.8293,1.649,19.49,11111222 
DISL,ioos:station:DISL:BSCA:1,2019-09-07T01:30:00Z,30.3288,-87.8293,1.705,19.53,11111222 
DISL,ioos:station:DISL:BSCA:1,2019-09-07T02:30:00Z,30.3288,-87.8293,1.781,19.62,11111222 
DISL,ioos:station:DISL:BSCA:1,2019-09-07T03:30:00Z,30.3288,-87.8293,1.853,19.49,11111222 
DISL,ioos:station:DISL:BSCA:1,2019-09-07T04:30:00Z,30.3288,-87.8293,1.923,19.54,11111222 
DISL,ioos:station:DISL:BSCA:1,2019-09-07T05:30:00Z,30.3288,-87.8293,1.986,19.43,11111222 
DISL,ioos:station:DISL:BSCA:1,2019-09-07T06:30:00Z,30.3288,-87.8293,2.027,19.51,11111222 
DISL,ioos:station:DISL:BSCA:1,2019-09-07T07:30:00Z,30.3288,-87.8293,2.063,19.57,11111222 
DISL,ioos:station:DISL:BSCA:1,2019-09-07T08:30:00Z,30.3288,-87.8293,2.094,19.57,11111222 
DISL,ioos:station:DISL:BSCA:1,2019-09-07T09:30:00Z,30.3288,-87.8293,2.103,19.51,11111222 
DISL,ioos:station:DISL:BSCA:1,2019-09-07T10:30:00Z,30.3288,-87.8293,2.091,19.56,11111222 
DISL,ioos:station:DISL:BSCA:1,2019-09-07T11:30:00Z,30.3288,-87.8293,2.063,19.46,11111222 
DISL,ioos:station:DISL:BSCA:1,2019-09-07T12:30:00Z,30.3288,-87.8293,2.051,19.39,11111222 
DISL,ioos:station:DISL:BSCA:1,2019-09-07T13:30:00Z,30.3288,-87.8293,2.006,19.21,11111222 
DISL,ioos:station:DISL:BSCA:1,2019-09-07T14:30:00Z,30.3288,-87.8293,1.964,19.18,11111222 
DISL,ioos:station:DISL:BSCA:1,2019-09-07T15:30:00Z,30.3288,-87.8293,1.904,19.15,11111222 
DISL,ioos:station:DISL:BSCA:1,2019-09-07T16:30:00Z,30.3288,-87.8293,1.846,19.32,11111222 
DISL,ioos:station:DISL:BSCA:1,2019-09-07T17:30:00Z,30.3288,-87.8293,1.778,19.37,11111222 
DISL,ioos:station:DISL:BSCA:1,2019-09-07T18:30:00Z,30.3288,-87.8293,1.725,19.41,11111222 
DISL,ioos:station:DISL:BSCA:1,2019-09-07T19:30:00Z,30.3288,-87.8293,1.677,19.43,11111222 
DISL,ioos:station:DISL:BSCA:1,2019-09-07T20:30:00Z,30.3288,-87.8293,1.639,19.43,11111222 
DISL,ioos:station:DISL:BSCA:1,2019-09-07T21:30:00Z,30.3288,-87.8293,1.622,19.37,11111222 
DISL,ioos:station:DISL:BSCA:1,2019-09-07T22:30:00Z,30.3288,-87.8293,1.633,19.35,11111222 
DISL,ioos:station:DISL:BSCA:1,2019-09-07T23:30:00Z,30.3288,-87.8293,1.641,19.21,11111222 
DISL,ioos:station:DISL:BSCA:1,2019-09-08T00:30:00Z,30.3288,-87.8293,1.659,19.12,11111222 
DISL,ioos:station:DISL:BSCA:1,2019-09-08T01:30:00Z,30.3288,-87.8293,1.726,19.15,11111222 
DISL,ioos:station:DISL:BSCA:1,2019-09-08T02:30:00Z,30.3288,-87.8293,1.798,19.13,11111222 
DISL,ioos:station:DISL:BSCA:1,2019-09-08T03:30:00Z,30.3288,-87.8293,1.859,19.17,11111222 
DISL,ioos:station:DISL:BSCA:1,2019-09-08T04:30:00Z,30.3288,-87.8293,1.916,19.18,11111222 
DISL,ioos:station:DISL:BSCA:1,2019-09-08T05:30:00Z,30.3288,-87.8293,1.973,19.23,11111222 
DISL,ioos:station:DISL:BSCA:1,2019-09-08T06:30:00Z,30.3288,-87.8293,2.026,19.22,11111222 
DISL,ioos:station:DISL:BSCA:1,2019-09-08T07:30:00Z,30.3288,-87.8293,2.076,19.2,11111222 
DISL,ioos:station:DISL:BSCA:1,2019-09-08T08:30:00Z,30.3288,-87.8293,2.123,19.21,11111222 
DISL,ioos:station:DISL:BSCA:1,2019-09-08T09:30:00Z,30.3288,-87.8293,2.166,19.23,11111222 
DISL,ioos:station:DISL:BSCA:1,2019-09-08T10:30:00Z,30.3288,-87.8293,2.177,19.22,11111222 
DISL,ioos:station:DISL:BSCA:1,2019-09-08T11:30:00Z,30.3288,-87.8293,2.175,19.21,11111222 
DISL,ioos:station:DISL:BSCA:1,2019-09-08T12:30:00Z,30.3288,-87.8293,2.152,19.19,11111222 
DISL,ioos:station:DISL:BSCA:1,2019-09-08T13:30:00Z,30.3288,-87.8293,2.118,19.25,11111222 
DISL,ioos:station:DISL:BSCA:1,2019-09-08T14:30:00Z,30.3288,-87.8293,2.083,19.27,11111222 
DISL,ioos:station:DISL:BSCA:1,2019-09-08T15:30:00Z,30.3288,-87.8293,2.034,19.26,11111222 
DISL,ioos:station:DISL:BSCA:1,2019-09-08T16:30:00Z,30.3288,-87.8293,1.966,19.23,11111222 
DISL,ioos:station:DISL:BSCA:1,2019-09-08T17:30:00Z,30.3288,-87.8293,1.907,19.27,11111222 
DISL,ioos:station:DISL:BSCA:1,2019-09-08T18:30:00Z,30.3288,-87.8293,1.852,19.28,11111222 
DISL,ioos:station:DISL:BSCA:1,2019-09-08T19:30:00Z,30.3288,-87.8293,1.791,19.21,11111222 
DISL,ioos:station:DISL:BSCA:1,2019-09-08T20:30:00Z,30.3288,-87.8293,1.744,19.12,11111222 
DISL,ioos:station:DISL:BSCA:1,2019-09-08T21:30:00Z,30.3288,-87.8293,1.709,19.1,11111222 
DISL,ioos:station:DISL:BSCA:1,2019-09-08T22:30:00Z,30.3288,-87.8293,1.69,19.06,11111222 
DISL,ioos:station:DISL:BSCA:1,2019-09-08T23:30:00Z,30.3288,-87.8293,1.706,19.04,11111222 
DISL,ioos:station:DISL:BSCA:1,2019-09-09T00:30:00Z,30.3288,-87.8293,1.75,19.05,11111222 
DISL,ioos:station:DISL:BSCA:1,2019-09-09T01:30:00Z,30.3288,-87.8293,1.8,19.06,11111222 
DISL,ioos:station:DISL:BSCA:1,2019-09-09T02:30:00Z,30.3288,-87.8293,1.847,19.1,11111222 
DISL,ioos:station:DISL:BSCA:1,2019-09-09T03:30:00Z,30.3288,-87.8293,1.908,19.13,11111222 
DISL,ioos:station:DISL:BSCA:1,2019-09-09T04:30:00Z,30.3288,-87.8293,1.944,19.18,11111222 
DISL,ioos:station:DISL:BSCA:1,2019-09-09T05:30:00Z,30.3288,-87.8293,1.997,19.22,11111222 
DISL,ioos:station:DISL:BSCA:1,2019-09-09T06:30:00Z,30.3288,-87.8293,2.043,19.22,11111222 
DISL,ioos:station:DISL:BSCA:1,2019-09-09T07:30:00Z,30.3288,-87.8293,2.064,19.26,11111222 
DISL,ioos:station:DISL:BSCA:1,2019-09-09T08:30:00Z,30.3288,-87.8293,2.09,19.28,11111222 
DISL,ioos:station:DISL:BSCA:1,2019-09-09T09:30:00Z,30.3288,-87.8293,2.127,19.28,11111222 
DISL,ioos:station:DISL:BSCA:1,2019-09-09T10:30:00Z,30.3288,-87.8293,2.167,19.31,11111222 
DISL,ioos:station:DISL:BSCA:1,2019-09-09T11:30:00Z,30.3288,-87.8293,2.184,19.33,11111222 
DISL,ioos:station:DISL:BSCA:1,2019-09-09T12:30:00Z,30.3288,-87.8293,2.191,19.35,11111222 
DISL,ioos:station:DISL:BSCA:1,2019-09-09T13:30:00Z,30.3288,-87.8293,2.166,19.29,11111222 
DISL,ioos:station:DISL:BSCA:1,2019-09-09T14:30:00Z,30.3288,-87.8293,2.134,19.22,11111222 
DISL,ioos:station:DISL:BSCA:1,2019-09-09T15:30:00Z,30.3288,-87.8293,2.093,19.18,11111222 
DISL,ioos:station:DISL:BSCA:1,2019-09-09T16:30:00Z,30.3288,-87.8293,2.031,19.23,11111222 
DISL,ioos:station:DISL:BSCA:1,2019-09-09T17:30:00Z,30.3288,-87.8293,1.966,19.15,11111222 
DISL,ioos:station:DISL:BSCA:1,2019-09-09T18:30:00Z,30.3288,-87.8293,1.9,19.07,11111222 
DISL,ioos:station:DISL:BSCA:1,2019-09-09T22:30:00Z,30.3288,-87.8293,1.718,18.96,11111222 
DISL,ioos:station:DISL:BSCA:1,2019-09-09T23:30:00Z,30.3288,-87.8293,1.717,18.94,11111222 
DISL,ioos:station:DISL:BSCA:1,2019-09-10T00:30:00Z,30.3288,-87.8293,1.748,18.98,11111222 
DISL,ioos:station:DISL:BSCA:1,2019-09-10T01:30:00Z,30.3288,-87.8293,1.792,19.0,11111222 
DISL,ioos:station:DISL:BSCA:1,2019-09-10T02:30:00Z,30.3288,-87.8293,1.827,19.02,11111222 
DISL,ioos:station:DISL:BSCA:1,2019-09-10T03:30:00Z,30.3288,-87.8293,1.871,19.03,11111222 
DISL,ioos:station:DISL:BSCA:1,2019-09-10T04:30:00Z,30.3288,-87.8293,1.924,19.02,11111222 
DISL,ioos:station:DISL:BSCA:1,2019-09-10T05:30:00Z,30.3288,-87.8293,1.975,18.99,11111222 
DISL,ioos:station:DISL:BSCA:1,2019-09-10T06:30:00Z,30.3288,-87.8293,2.016,19.01,11111222 
DISL,ioos:station:DISL:BSCA:1,2019-09-10T07:30:00Z,30.3288,-87.8293,2.054,19.16,11111222 
DISL,ioos:station:DISL:BSCA:1,2019-09-10T08:30:00Z,30.3288,-87.8293,2.11,19.26,11111222 
DISL,ioos:station:DISL:BSCA:1,2019-09-10T09:30:00Z,30.3288,-87.8293,2.139,19.35,11111222 
DISL,ioos:station:DISL:BSCA:1,2019-09-10T10:30:00Z,30.3288,-87.8293,2.162,19.38,11111222 
DISL,ioos:station:DISL:BSCA:1,2019-09-10T11:30:00Z,30.3288,-87.8293,2.192,19.42,11111222 
DISL,ioos:station:DISL:BSCA:1,2019-09-10T12:30:00Z,30.3288,-87.8293,2.211,19.43,11111222 
DISL,ioos:station:DISL:BSCA:1,2019-09-10T13:30:00Z,30.3288,-87.8293,2.199,19.4,11111222 
DISL,ioos:station:DISL:BSCA:1,2019-09-10T14:30:00Z,30.3288,-87.8293,2.16,19.36,11111222 
DISL,ioos:station:DISL:BSCA:1,2019-09-10T15:30:00Z,30.3288,-87.8293,2.133,19.28,11111222 
DISL,ioos:station:DISL:BSCA:1,2019-09-10T16:30:00Z,30.3288,-87.8293,2.08,19.26,11111222 
DISL,ioos:station:DISL:BSCA:1,2019-09-10T17:30:00Z,30.3288,-87.8293,2.02,19.22,11111222 
DISL,ioos:station:DISL:BSCA:1,2019-09-10T18:30:00Z,30.3288,-87.8293,1.958,19.19,11111222 
DISL,ioos:station:DISL:BSCA:1,2019-09-10T19:30:00Z,30.3288,-87.8293,1.894,19.15,11111222 
DISL,ioos:station:DISL:BSCA:1,2019-09-10T20:30:00Z,30.3288,-87.8293,1.83,19.14,11111222 
DISL,ioos:station:DISL:BSCA:1,2019-09-10T21:30:00Z,30.3288,-87.8293,1.786,19.13,11111222 
DISL,ioos:station:DISL:BSCA:1,2019-09-10T22:30:00Z,30.3288,-87.8293,1.751,19.12,11111222 
DISL,ioos:station:DISL:BSCA:1,2019-09-10T23:30:00Z,30.3288,-87.8293,1.727,19.13,11111222 
DISL,ioos:station:DISL:BSCA:1,2019-09-11T00:00:00Z,30.3288,-87.8293,1.73,19.14,11111222 
DISL,ioos:station:DISL:BSCA:1,2019-09-11T01:30:00Z,30.3288,-87.8293,1.739,19.19,11111222 
DISL,ioos:station:DISL:BSCA:1,2019-09-11T02:30:00Z,30.3288,-87.8293,1.777,19.14,11111222 
DISL,ioos:station:DISL:BSCA:1,2019-09-11T03:30:00Z,30.3288,-87.8293,1.819,19.14,11111222 
DISL,ioos:station:DISL:BSCA:1,2019-09-11T04:30:00Z,30.3288,-87.8293,1.863,19.16,11111222 
DISL,ioos:station:DISL:BSCA:1,2019-09-11T05:30:00Z,30.3288,-87.8293,1.885,19.17,11111222 
DISL,ioos:station:DISL:BSCA:1,2019-09-11T06:30:00Z,30.3288,-87.8293,1.93,19.23,11111222 
DISL,ioos:station:DISL:BSCA:1,2019-09-11T07:30:00Z,30.3288,-87.8293,1.966,19.3,11111222 
DISL,ioos:station:DISL:BSCA:1,2019-09-11T08:30:00Z,30.3288,-87.8293,1.994,19.31,11111222 
DISL,ioos:station:DISL:BSCA:1,2019-09-11T09:30:00Z,30.3288,-87.8293,2.013,19.26,11111222 
DISL,ioos:station:DISL:BSCA:1,2019-09-11T10:30:00Z,30.3288,-87.8293,2.051,19.24,11111222 
DISL,ioos:station:DISL:BSCA:1,2019-09-11T11:30:00Z,30.3288,-87.8293,2.093,19.22,11111222 
DISL,ioos:station:DISL:BSCA:1,2019-09-11T12:30:00Z,30.3288,-87.8293,2.13,19.17,11111222 
DISL,ioos:station:DISL:BSCA:1,2019-09-11T13:30:00Z,30.3288,-87.8293,2.155,19.06,11111222 
DISL,ioos:station:DISL:BSCA:1,2019-09-11T14:30:00Z,30.3288,-87.8293,2.162,18.78,11111222 
DISL,ioos:station:DISL:BSCA:1,2019-09-11T15:30:00Z,30.3288,-87.8293,2.15,18.71,11111222 
DISL,ioos:station:DISL:BSCA:1,2019-09-11T16:30:00Z,30.3288,-87.8293,2.126,18.61,11111222 
DISL,ioos:station:DISL:BSCA:1,2019-09-11T17:30:00Z,30.3288,-87.8293,2.092,18.58,11111222 
DISL,ioos:station:DISL:BSCA:1,2019-09-11T18:30:00Z,30.3288,-87.8293,2.037,18.56,11111222 
DISL,ioos:station:DISL:BSCA:1,2019-09-11T19:30:00Z,30.3288,-87.8293,1.977,18.55,11111222 
DISL,ioos:station:DISL:BSCA:1,2019-09-11T20:30:00Z,30.3288,-87.8293,1.905,18.57,11111222 
DISL,ioos:station:DISL:BSCA:1,2019-09-11T21:30:00Z,30.3288,-87.8293,1.85,18.56,11111222 
DISL,ioos:station:DISL:BSCA:1,2019-09-11T22:30:00Z,30.3288,-87.8293,1.818,18.51,11111222 
DISL,ioos:station:DISL:BSCA:1,2019-09-11T23:30:00Z,30.3288,-87.8293,1.808,18.46,11111222 
DISL,ioos:station:DISL:BSCA:1,2019-09-12T00:30:00Z,30.3288,-87.8293,1.817,18.5,11111222 
DISL,ioos:station:DISL:BSCA:1,2019-09-12T01:30:00Z,30.3288,-87.8293,1.856,18.46,11111222 
DISL,ioos:station:DISL:BSCA:1,2019-09-12T02:30:00Z,30.3288,-87.8293,1.877,18.52,11111222 
DISL,ioos:station:DISL:BSCA:1,2019-09-12T03:30:00Z,30.3288,-87.8293,1.9,18.48,11111222 
DISL,ioos:station:DISL:BSCA:1,2019-09-12T04:30:00Z,30.3288,-87.8293,1.937,18.39,11111222 
DISL,ioos:station:DISL:BSCA:1,2019-09-12T05:30:00Z,30.3288,-87.8293,1.973,18.39,11111222 
DISL,ioos:station:DISL:BSCA:1,2019-09-12T06:30:00Z,30.3288,-87.8293,1.995,18.37,11111222 
DISL,ioos:station:DISL:BSCA:1,2019-09-12T07:30:00Z,30.3288,-87.8293,2.024,18.2,11111222 
DISL,ioos:station:DISL:BSCA:1,2019-09-12T08:30:00Z,30.3288,-87.8293,2.039,18.13,11111222 
DISL,ioos:station:DISL:BSCA:1,2019-09-12T09:30:00Z,30.3288,-87.8293,2.029,18.1,11111222 